AWG107Q EGKK-LROP

Flight info

Callsign AWG107Q
Flight time N/A
Altitude 370
Route ODVIK Y311 DVR UL9 KONAN DCT KOK DCT REMBA DCT SPI DCT GUBAX DCT BARSU DCT MOOCE DCT RUDNO DCT DEXIT DCT TEGRI DCT NEKUL DCT LAMIT DCT TOSVI
Aircraft A20N/M-SDE2E3FGHIRWXY/LB1

Departure

Time 2026-05-05 13:00
Airport London Gatwick Airport (EGKK)

Arrival

Time N/A
Airport Bucharest Henri Coandă International Airport (LROP)
Time Latitude Longitude Altitude Speed Heading
2026-05-05 12:38 51.15971 -0.17149 208 ft 0 kts 323°
2026-05-05 12:46 51.15962 -0.17139 220 ft 3 kts 323°
2026-05-05 12:46 51.15948 -0.17121 220 ft 3 kts 323°
2026-05-05 12:46 51.15933 -0.17104 215 ft 3 kts 323°
2026-05-05 12:47 51.15929 -0.17099 214 ft 0 kts 318°
2026-05-05 12:47 51.15920 -0.17083 216 ft 3 kts 294°
2026-05-05 12:47 51.15917 -0.17055 210 ft 3 kts 255°
2026-05-05 12:47 51.15925 -0.17031 215 ft 0 kts 217°
2026-05-05 12:49 51.15904 -0.17055 211 ft 7 kts 209°
2026-05-05 12:49 51.15839 -0.17089 217 ft 10 kts 200°
2026-05-05 12:49 51.15808 -0.17175 208 ft 9 kts 256°
2026-05-05 12:49 51.15795 -0.17274 211 ft 10 kts 257°
2026-05-05 12:50 51.15778 -0.17394 208 ft 12 kts 257°
2026-05-05 12:50 51.15758 -0.17539 212 ft 14 kts 258°
2026-05-05 12:50 51.15738 -0.17686 210 ft 13 kts 257°
2026-05-05 12:50 51.15719 -0.17825 216 ft 13 kts 258°
2026-05-05 12:51 51.15700 -0.17961 212 ft 12 kts 257°
2026-05-05 12:51 51.15682 -0.18090 209 ft 12 kts 257°
2026-05-05 12:51 51.15665 -0.18213 215 ft 11 kts 257°
2026-05-05 12:51 51.15644 -0.18330 212 ft 10 kts 235°
2026-05-05 12:52 51.15582 -0.18347 212 ft 9 kts 168°
2026-05-05 12:52 51.15521 -0.18326 208 ft 9 kts 168°
2026-05-05 12:52 51.15461 -0.18305 208 ft 9 kts 167°
2026-05-05 12:52 51.15398 -0.18283 208 ft 10 kts 167°
2026-05-05 12:53 51.15330 -0.18260 208 ft 10 kts 168°
2026-05-05 12:53 51.15284 -0.18244 212 ft 11 kts 168°
2026-05-05 12:53 51.15190 -0.18261 212 ft 11 kts 251°
2026-05-05 12:53 51.15183 -0.18351 212 ft 13 kts 263°
2026-05-05 12:54 51.15139 -0.18678 211 ft 18 kts 257°
2026-05-05 12:54 51.15111 -0.18881 217 ft 20 kts 257°
2026-05-05 12:54 51.15081 -0.19102 212 ft 21 kts 258°
2026-05-05 12:55 51.15050 -0.19323 214 ft 20 kts 257°
2026-05-05 12:55 51.15020 -0.19538 211 ft 20 kts 258°
2026-05-05 12:55 51.14992 -0.19743 208 ft 19 kts 257°
2026-05-05 12:55 51.14964 -0.19948 208 ft 19 kts 257°
2026-05-05 12:56 51.14936 -0.20149 214 ft 18 kts 257°
2026-05-05 12:56 51.14909 -0.20342 215 ft 18 kts 257°
2026-05-05 12:56 51.14883 -0.20535 212 ft 17 kts 258°
2026-05-05 12:56 51.14857 -0.20717 208 ft 17 kts 257°
2026-05-05 12:57 51.14833 -0.20893 208 ft 16 kts 258°
2026-05-05 12:57 51.14810 -0.21062 212 ft 15 kts 257°
2026-05-05 12:57 51.14779 -0.21219 211 ft 14 kts 255°
2026-05-05 12:57 51.14756 -0.21370 211 ft 13 kts 244°
2026-05-05 12:58 51.14680 -0.21390 208 ft 12 kts 149°
2026-05-05 12:58 51.14613 -0.21327 210 ft 10 kts 166°
2026-05-05 12:58 51.14551 -0.21291 214 ft 9 kts 145°
2026-05-05 12:58 51.14518 -0.21206 216 ft 9 kts 96°
2026-05-05 12:59 51.14557 -0.20950 211 ft 52 kts 82°
2026-05-05 12:59 51.14677 -0.20036 211 ft 116 kts 77°
2026-05-05 12:59 51.14869 -0.18613 498 ft 137 kts 77°
2026-05-05 13:00 51.15312 -0.15374 1596 ft 167 kts 75°
2026-05-05 13:00 51.15588 -0.13391 1962 ft 200 kts 75°
2026-05-05 13:01 51.16629 -0.05756 3848 ft 248 kts 76°
2026-05-05 13:01 51.16867 -0.03018 4734 ft 252 kts 86°
2026-05-05 13:01 51.16866 -0.00194 5485 ft 257 kts 90°
2026-05-05 13:01 51.16797 0.02691 5894 ft 262 kts 91°
2026-05-05 13:02 51.16721 0.05595 5992 ft 265 kts 91°
2026-05-05 13:02 51.16649 0.08544 6003 ft 267 kts 91°
2026-05-05 13:02 51.16581 0.11515 6014 ft 267 kts 91°
2026-05-05 13:02 51.16514 0.14503 6519 ft 272 kts 91°
2026-05-05 13:03 51.16455 0.17490 7469 ft 273 kts 91°
2026-05-05 13:03 51.16408 0.20546 8325 ft 276 kts 90°
2026-05-05 13:03 51.16365 0.23630 9145 ft 280 kts 90°
2026-05-05 13:03 51.16325 0.26766 9961 ft 284 kts 90°
2026-05-05 13:04 51.16286 0.29954 10546 ft 296 kts 90°
2026-05-05 13:04 51.16245 0.33303 10856 ft 316 kts 91°
2026-05-05 13:04 51.16197 0.36910 11154 ft 335 kts 91°
2026-05-05 13:04 51.16142 0.40731 11482 ft 352 kts 91°
2026-05-05 13:05 51.16082 0.44679 12044 ft 359 kts 91°
2026-05-05 13:05 51.16019 0.48693 12740 ft 363 kts 91°
2026-05-05 13:05 51.15957 0.52658 13450 ft 365 kts 91°
2026-05-05 13:05 51.15893 0.56740 14167 ft 368 kts 91°
2026-05-05 13:06 51.15830 0.60855 14766 ft 372 kts 91°
2026-05-05 13:06 51.15768 0.65013 15354 ft 377 kts 91°
2026-05-05 13:06 51.15704 0.69225 15953 ft 381 kts 91°
2026-05-05 13:06 51.15640 0.73462 16566 ft 384 kts 91°
2026-05-05 13:07 51.15574 0.77736 17174 ft 388 kts 91°
2026-05-05 13:07 51.15507 0.82011 17698 ft 392 kts 91°
2026-05-05 13:07 51.15438 0.86363 18312 ft 395 kts 91°
2026-05-05 13:07 51.15366 0.90775 18854 ft 398 kts 92°
2026-05-05 13:08 51.15294 0.95198 19393 ft 401 kts 92°
2026-05-05 13:08 51.15220 0.99676 19929 ft 404 kts 92°
2026-05-05 13:08 51.15146 1.04110 20462 ft 407 kts 92°
2026-05-05 13:08 51.15069 1.08637 21004 ft 409 kts 92°
2026-05-05 13:09 51.14990 1.13199 21519 ft 412 kts 93°
2026-05-05 13:09 51.14910 1.17799 22040 ft 415 kts 93°
2026-05-05 13:09 51.14827 1.22356 22534 ft 419 kts 93°
2026-05-05 13:09 51.14739 1.27030 23048 ft 422 kts 94°
2026-05-05 13:10 51.14646 1.31726 23540 ft 425 kts 94°
2026-05-05 13:10 51.14551 1.36417 23947 ft 428 kts 94°
2026-05-05 13:10 51.14451 1.41221 24372 ft 431 kts 94°
2026-05-05 13:10 51.14350 1.45946 24764 ft 433 kts 94°
2026-05-05 13:11 51.14245 1.50781 25169 ft 436 kts 94°
2026-05-05 13:11 51.14138 1.55630 25542 ft 438 kts 94°
2026-05-05 13:11 51.14065 1.58850 25787 ft 440 kts 94°